Regional Weather Roundup
Issued by NWS

Home | Current Version | Previous Version | Graphics & Text | Print | Product List | Glossary On
Versions: 1 2 3 4 5 6 7 8 9 10 11 12 13 14 15 16 17 18 19 20 21 22 23 24 25 26 27 28
000
ASUS45 KPSR 291810
RWRAZ

ARIZONA HOURLY REGIONAL WEATHER ROUNDUP
NATIONAL WEATHER SERVICE PHOENIX AZ
1100 AM MST MON AUG 29 2016

NOTE: FAIR INDICATES FEW OR NO CLOUDS BELOW 12,000 FEET WITH NO
SIGNIFICANT WEATHER AND/OR OBSTRUCTIONS TO VISIBILITY.

AZZ001>003-036-291900-
NORTHWEST ARIZONA

CITY           SKY/WX    TMP DP  RH WIND       PRES   REMARKS
BULLHEAD CITY  SUNNY     95  50  21 CALM      29.94S
KINGMAN        SUNNY     89  46  22 NE3       30.13F
6HR MIN TEMP:  61; 6HR MAX TEMP:  90;

$$

AZZ004>008-015-016-018-291900-
NORTH CENTRAL ARIZONA

CITY           SKY/WX    TMP DP  RH WIND       PRES   REMARKS
GRAND CANYON   SUNNY     76  44  32 NE16      30.37S
6HR MIN TEMP:  45; 6HR MAX TEMP:  76;

PRESCOTT       MOSUNNY   78  47  33 CALM      30.24F
6HR MIN TEMP:  54; 6HR MAX TEMP:  79;

FLAGSTAFF      SUNNY     69  44  40 NE15      30.36S
6HR MIN TEMP:  41; 6HR MAX TEMP:  71;

PAYSON         SUNNY     79  43  27 NE14G23   30.26R
PAGE           SUNNY     80  48  32 N3        30.21F
6HR MIN TEMP:  63; 6HR MAX TEMP:  80;

$$

AZZ009>014-017-291900-
NORTHEAST ARIZONA

CITY           SKY/WX    TMP DP  RH WIND       PRES   REMARKS
WINSLOW        SUNNY     77  47  34 E5        30.26F
6HR MIN TEMP:  51; 6HR MAX TEMP:  77;

SAINT JOHNS    SUNNY     76  41  28 CALM      30.28F
6HR MIN TEMP:  46; 6HR MAX TEMP:  77;

SHOW LOW       SUNNY     70  39  32 CALM      30.33F
$$

AZZ023-291900-
GREATER PHOENIX AREA

CITY           SKY/WX    TMP DP  RH WIND       PRES   REMARKS
PHOENIX        MOSUNNY   96  46  18 CALM      29.91F
6HR MIN TEMP:  79; 6HR MAX TEMP:  98;

BUCKEYE        SUNNY     95  48  20 CALM      29.94F
GLENDALE         N/A     99  46  16 CALM      29.94F
LUKE AFB       SUNNY     99  46  16 VRB2      29.91F
6HR MIN TEMP:  76; 6HR MAX TEMP:  99;

DEER VALLEY    SUNNY     97  43  15 E6G16     29.93F
6HR MIN TEMP:  76; 6HR MAX TEMP:  99;

SCOTTSDALE     SUNNY     98  42  14 NE6       29.96F
6HR MIN TEMP:  78; 6HR MAX TEMP:  98;

MESA-FALCON    SUNNY    N/A N/A N/A VRB6      29.92F
MESA-GATEWAY   SUNNY     93  46  20 S7        29.95F
CHANDLER       SUNNY     93  50  22 S8        29.94F
$$

AZZ027-028-291900-
SOUTHWEST MARICOPA COUNTY AND PINAL COUNTY

CITY           SKY/WX    TMP DP  RH WIND       PRES   REMARKS
CASA GRANDE    SUNNY     91  45  19 E5        29.98F
6HR MIN TEMP:  70; 6HR MAX TEMP:  93;

GILA BEND      SUNNY     98  44  15 NE5       29.90F
6HR MIN TEMP:  74; 6HR MAX TEMP:  98;

$$

AZZ503-504-507>509-291900-
SOUTHEAST ARIZONA

CITY           SKY/WX    TMP DP  RH WIND       PRES   REMARKS
TUCSON         SUNNY     90  44  20 CALM      30.04F
6HR MIN TEMP:  69; 6HR MAX TEMP:  91;

DAVIS-MONTHAN  SUNNY     89  45  21 VRB2      30.02F
6HR MIN TEMP:  66; 6HR MAX TEMP:  89;

RYAN FIELD     SUNNY     90  45  20 CALM      30.02F
NOGALES        SUNNY     88  45  22 W8        30.10F
6HR MIN TEMP:  56; 6HR MAX TEMP:  88;

SIERRA VISTA   SUNNY     85  46  25 VRB5      30.18F
6HR MIN TEMP:  64; 6HR MAX TEMP:  85;

DOUGLAS        MOSUNNY   87  50  27 SE9       30.13F
6HR MIN TEMP:  55; 6HR MAX TEMP:  87;

SAFFORD        SUNNY     89  49  25 S10       30.07F
6HR MIN TEMP:  64; 6HR MAX TEMP:  89;

$$

AZZ020-021-025-026-031-291900-
SOUTHWEST ARIZONA

CITY           SKY/WX    TMP DP  RH WIND       PRES   REMARKS
YUMA           SUNNY    102  47  15 NE7       29.86F
6HR MIN TEMP:  81; 6HR MAX TEMP: 102;

$$

CAZ031-033-041-043-047-048-061-291900-
SOUTHERN CALIFORNIA

CITY           SKY/WX    TMP DP  RH WIND       PRES   REMARKS
DOWNTOWN L.A.  SUNNY     81  63  54 CALM      29.95F
6HR MIN TEMP:  64; 6HR MAX TEMP:  81;

L.A. AIRPORT   SUNNY     76  63  64 W8        29.96F
6HR MIN TEMP:  66; 6HR MAX TEMP:  76;

SAN DIEGO      MOSUNNY   75  64  68 W9        29.97F
6HR MIN TEMP:  68; 6HR MAX TEMP:  76;

BURBANK        SUNNY     81  58  45 SE7       29.96F
6HR MIN TEMP:  65; 6HR MAX TEMP:  81;

ONTARIO        SUNNY     85  54  34 SW5       29.97F
6HR MIN TEMP:  65; 6HR MAX TEMP:  85;

RIVERSIDE      SUNNY     85  54  34 W6        29.96F
6HR MIN TEMP:  66; 6HR MAX TEMP:  85;

PALM SPRINGS   SUNNY    104  44  13 VRB3      29.90F
6HR MIN TEMP:  81; 6HR MAX TEMP: 104;

EL CENTRO NAS  MOSUNNY  105  42  11 N6        29.86F HX 100
6HR MIN TEMP:  78; 6HR MAX TEMP: 105;

IMPERIAL       SUNNY    103  52  18 NW6       29.85S HX 100
6HR MIN TEMP:  79; 6HR MAX TEMP: 104;

BLYTHE         SUNNY    100  49  17 E7        29.90S
6HR MIN TEMP:  78; 6HR MAX TEMP: 100;

NEEDLES        SUNNY     99  50  19 MISG      29.95S
6HR MIN TEMP:  81; 6HR MAX TEMP:  99;

$$

NVZ020-UTZ003-291900-
SOUTHERN NEVADA-UTAH

CITY           SKY/WX    TMP DP  RH WIND       PRES   REMARKS
LAS VEGAS      MOSUNNY   94  42  16 NW6       30.03F
6HR MIN TEMP:  77; 6HR MAX TEMP:  94;

SALT LAKE CITY MOSUNNY   88  37  16 NW7       30.21F
6HR MIN TEMP:  62; 6HR MAX TEMP:  88;

$$

NMZ009-TXZ055-291900-
NEW MEXICO-WEST TEXAS

CITY           SKY/WX    TMP DP  RH WIND       PRES   REMARKS
ALBUQUERQUE    MOSUNNY   77  48  35 SE15G21   30.28F
6HR MIN TEMP:  59; 6HR MAX TEMP:  78;

EL PASO        MOSUNNY   79  61  53 E9        30.17F
6HR MIN TEMP:  67; 6HR MAX TEMP:  79;

$$


........................KEY........................
SKY/WX - SKY CONDITION/WEATHER
TMP    - TEMPERATURE IN FAHRENHEIT
DP     - DEW POINT IN FAHRENHEIT
RH     - RELATIVE HUMIDITY IN PERCENT
WIND   - DIRECTION AND SPEED IN MILES PER HOUR (MPH)
VRB    - VARIABLE WIND DIRECTION
PRES   - MEAN SEA LEVEL PRESSURE IN INCHES OF MERCURY
         F - FALLING PRESSURE   R - RISING PRESSURE
         S - STEADY PRESSURE
VSB    - VISIBILITY IN MILES
HX     - HEAT INDEX IN FAHRENHEIT
WCI    - WIND CHILL INDEX IN FAHRENHEIT
TC     - TEMPERATURE IN CELSIUS WHICH IS ALSO KNOWN AS
         TEMPERATURE IN CENTIGRADE
AFB    - AIR FORCE BASE
         LUKE AFB IS LUKE AIR FORCE BASE
         DAVIS-MONTHAN IS DAVIS-MONTHAN AIR FORCE BASE
NAS    - NAVAL AIR STATION
         EL CENTRO NAS IS EL CENTRO NAVAL AIR STATION
N/A    - NOT AVAILABLE





USA.gov is the U.S. government's official web portal to all federal, state and local government web resources and services.